Estación Meteorológica Peña el Pijo (Robertgarden) [ 07/12/20 04:31:59 CEST ]

Fecha Hora Presion(HPa) Temp (°C) Humedad % Rocio (°C) Viento ( m/s) Direccion Lluvia 1Hora(mm) Lluvia 24H(mm) LLuvia Total(mm)
2020-Feb-10 01:09:47 1021.100 - - - - N     39.88
2020-Feb-10 02:13:53 1020.500 - - - - N     39.88
2020-Feb-10 03:09:45 1020.300 - - - - N     39.88
2020-Feb-10 04:09:55 1019.800 - - - - N     39.88
2020-Feb-10 05:09:38 1019.700 - - - - N     39.88
2020-Feb-10 06:09:26 1019.800 - - - - N     39.88
2020-Feb-10 07:09:10 1020.100 - - - - N     39.88
2020-Feb-10 08:09:10 1020.700 - - - - N     39.88
2020-Feb-10 09:08:57 1020.800 - - - - N     39.88
2020-Feb-10 10:09:03 1020.700 - - - - N     39.88
2020-Feb-10 11:08:52 1020.900 - - - - N     39.88
2020-Feb-10 12:09:06 1020.400 - - - - N     39.88
2020-Feb-10 13:09:11 1019.700 - - - - N     39.88
2020-Feb-10 14:09:08 1019.000 - - - - N     39.88
2020-Feb-10 15:09:44 1018.000 - - - - N     39.88
2020-Feb-10 16:08:50 1018.000 - - - - N     39.88
2020-Feb-10 17:09:02 1018.000 - - - - N     39.88
2020-Feb-10 18:08:44 1018.100 - - - - N     39.88
2020-Feb-10 19:09:04 1018.300 - - - - N     39.88
2020-Feb-10 20:09:05 1018.800 - - - - N     39.88
2020-Feb-10 21:08:58 1019.000 - - - - N     39.88
2020-Feb-10 22:08:58 1019.300 - - - - N     39.88
2020-Feb-10 23:08:57 1019.400 - - - - N     39.88

Temperatura Máxima:    Temperatura Mínima:
Presión Máxima:1021.100 Hpa    Presión Mínima:1018.000 Hpa


Volver